G0BMH-13 Weather Reports


time (UTC)temp
C
wind
direction
speed
KPH
gust
KPH
rain 1hr
cm
rain 24hr
cm
rain mn
cm
humidity
%
barometer
mb
20260508123003 14 120 1.6 4.8 0.00 0.00 0.00 59 1017.4
20260508122504 14 152 1.6 9.7 0.00 0.00 0.00 59 1017.4
20260508122003 14 151 3.2 9.7 0.00 0.00 0.00 59 1017.3
20260508121503 15 135 1.6 6.4 0.00 0.00 0.00 57 1017.4
20260508121024 15 107 1.6 6.4 0.00 0.00 0.00 57 1017.4
20260508120503 15 105 1.6 6.4 0.00 0.00 0.00 59 1017.0
20260508120024 15 102 1.6 6.4 0.00 0.00 0.00 60 1017.3
20260508115503 15 105 1.6 6.4 0.00 0.00 0.00 61 1017.2
20260508115003 15 137 1.6 6.4 0.00 0.00 0.00 59 1017.3
20260508114503 15 175 1.6 6.4 0.00 0.00 0.00 59 1017.3
20260508114003 15 165 1.6 6.4 0.00 0.00 0.00 60 1017.3
20260508113524 15 129 1.6 9.7 0.00 0.00 0.00 59 1017.2
20260508113004 14 113 3.2 9.7 0.00 0.00 0.00 60 1017.3
20260508112503 14 103 1.6 6.4 0.00 0.00 0.00 61 1017.4
20260508112003 13 107 1.6 6.4 0.00 0.00 0.00 61 1017.3
20260508111503 14 115 3.2 6.4 0.00 0.00 0.00 61 1017.4
20260508111003 14 122 1.6 6.4 0.00 0.00 0.00 61 1017.5
20260508110503 13 138 1.6 6.4 0.00 0.00 0.00 60 1017.6
20260508110003 13 118 3.2 6.4 0.00 0.00 0.00 61 1017.4
20260508105503 13 103 3.2 6.4 0.00 0.00 0.00 63 1017.5
20260508105003 13 107 3.2 6.4 0.00 0.00 0.00 63 1017.4
20260508104503 13 122 3.2 6.4 0.00 0.00 0.00 64 1017.5
20260508104003 13 122 1.6 4.8 0.00 0.00 0.00 64 1017.5
20260508103524 13 101 1.6 6.4 0.00 0.00 0.00 64 1017.3
20260508103024 13 94 3.2 6.4 0.00 0.00 0.00 64 1017.3
20260508102503 13 115 1.6 6.4 0.00 0.00 0.00 62 1017.5
20260508102003 13 185 1.6 6.4 0.00 0.00 0.00 63 1017.4
20260508101503 13 205 3.2 11.3 0.00 0.00 0.00 62 1017.5
20260508101003 13 208 3.2 11.3 0.00 0.00 0.00 63 1017.6
20260508100503 13 173 3.2 6.4 0.00 0.00 0.00 63 1017.4
20260508100003 13 117 3.2 6.4 0.00 0.00 0.00 63 1017.4
20260508095503 13 99 3.2 6.4 0.00 0.00 0.00 65 1017.5
20260508095024 13 102 3.2 9.7 0.00 0.00 0.00 66 1017.5
20260508094503 13 102 3.2 9.7 0.00 0.00 0.00 66 1017.5
20260508094003 13 107 3.2 6.4 0.00 0.00 0.00 66 1017.3
20260508093503 13 116 3.2 6.4 0.00 0.00 0.00 65 1017.3
20260508093003 13 115 1.6 6.4 0.00 0.00 0.00 66 1017.3
20260508092503 13 106 3.2 9.7 0.00 0.00 0.00 66 1017.1
20260508092024 13 102 3.2 12.9 0.00 0.00 0.00 66 1017.0
20260508091503 13 100 4.8 12.9 0.00 0.00 0.00 67 1017.2
20260508091003 13 107 3.2 9.7 0.00 0.00 0.00 66 1017.1
20260508090503 13 113 3.2 9.7 0.00 0.00 0.00 67 1017.1
20260508090025 13 114 3.2 9.7 0.00 0.00 0.00 67 1016.9
20260508085503 13 118 1.6 9.7 0.00 0.00 0.00 67 1017.2
20260508085003 13 110 1.6 4.8 0.00 0.00 0.00 67 1017.1
20260508084503 12 110 1.6 4.8 0.00 0.00 0.00 68 1017.0
20260508084003 12 137 1.6 3.2 0.00 0.00 0.00 69 1017.2
20260508083503 12 165 1.6 4.8 0.00 0.00 0.00 69 1017.1
20260508083003 12 147 1.6 4.8 0.00 0.00 0.00 69 1017.1
20260508082503 12 128 1.6 9.7 0.00 0.00 0.00 68 1017.1
20260508082003 12 141 1.6 9.7 0.00 0.00 0.00 70 1017.0
20260508081503 12 263 1.6 3.2 0.00 0.00 0.00 70 1017.2
20260508081003 12 293 1.6 4.8 0.00 0.00 0.00 71 1017.1
20260508080503 11 304 1.6 4.8 0.00 0.00 0.00 72 1017.1
20260508080003 11 286 1.6 4.8 0.00 0.00 0.00 72 1017.1
20260508075503 11 301 1.6 4.8 0.00 0.00 0.00 72 1017.1
20260508075003 11 352 1.6 4.8 0.00 0.00 0.00 72 1017.1
20260508074503 11 22 0.0 1.6 0.00 0.00 0.00 72 1016.9
20260508074003 11 22 0.0 1.6 0.00 0.00 0.00 73 1016.8
20260508073524 11 22 0.0 1.6 0.00 0.00 0.00 74 1016.9
20260508073003 10 22 0.0 1.6 0.00 0.00 0.00 76 1016.9
20260508072504 10 22 0.0 3.2 0.00 0.00 0.00 76 1017.0
20260508072003 10 11 0.0 3.2 0.00 0.00 0.00 77 1017.0
20260508071504 10 342 0.0 3.2 0.00 0.00 0.00 77 1017.0
20260508071003 10 336 1.6 4.8 0.00 0.00 0.00 78 1016.6
20260508070503 9 338 1.6 6.4 0.00 0.00 0.00 78 1016.8
20260508070003 9 327 1.6 6.4 0.00 0.00 0.00 79 1016.5
20260508065503 9 310 1.6 9.7 0.00 0.00 0.00 79 1016.6
20260508065003 9 297 1.6 9.7 0.00 0.00 0.00 79 1016.5
20260508064503 9 235 0.0 3.2 0.00 0.00 0.00 80 1016.3
20260508064003 8 203 0.0 3.2 0.00 0.00 0.00 81 1016.5
20260508063503 8 213 0.0 3.2 0.00 0.00 0.00 82 1016.4
20260508063003 8 212 0.0 1.6 0.00 0.00 0.00 82 1016.3
20260508062503 8 214 0.0 3.2 0.00 0.00 0.00 83 1016.3
20260508062003 8 212 1.6 4.8 0.00 0.00 0.00 83 1016.4
20260508061503 8 199 1.6 4.8 0.00 0.00 0.00 82 1016.2
20260508061003 8 162 1.6 4.8 0.00 0.00 0.00 82 1016.3
20260508060524 8 124 1.6 4.8 0.00 0.00 0.00 83 1015.9
20260508060004 8 113 1.6 4.8 0.00 0.00 0.00 83 1016.1
20260508055503 7 121 0.0 4.8 0.00 0.00 0.00 83 1016.0
20260508055004 7 38 0.0 3.2 0.00 0.00 0.00 83 1015.9
20260508054503 7 311 1.6 3.2 0.00 0.00 0.00 83 1015.8
20260508054003 7 307 1.6 3.2 0.00 0.00 0.00 82 1015.9
20260508053503 7 76 1.6 4.8 0.00 0.00 0.00 82 1015.8
20260508053003 7 95 1.6 6.4 0.00 0.00 0.00 82 1015.8
20260508052524 7 92 1.6 6.4 0.00 0.00 0.00 82 1015.7
20260508052024 7 99 3.2 9.7 0.00 0.00 0.00 82 1015.7
20260508051503 7 100 3.2 9.7 0.00 0.00 0.00 82 1015.7
20260508051003 8 98 1.6 6.4 0.00 0.00 0.00 82 1015.5
20260508050525 8 97 3.2 6.4 0.00 0.00 0.00 81 1015.7
20260508050024 8 100 3.2 6.4 0.00 0.00 0.00 81 1015.7
20260508045503 8 102 3.2 6.4 0.00 0.00 0.00 80 1015.5
20260508045003 8 99 3.2 6.4 0.00 0.00 0.00 80 1015.6
20260508044503 8 97 3.2 6.4 0.00 0.00 0.00 80 1015.7
20260508044003 8 97 3.2 6.4 0.00 0.00 0.00 80 1015.7
20260508043504 8 98 3.2 4.8 0.00 0.00 0.00 80 1015.7
20260508043003 8 97 3.2 9.7 0.00 0.00 0.00 81 1015.7
20260508042503 8 92 1.6 9.7 0.00 0.00 0.00 81 1015.4
20260508042024 8 95 1.6 6.4 0.00 0.00 0.00 81 1015.7
20260508041504 8 95 1.6 6.4 0.00 0.00 0.00 81 1015.6
20260508041003 8 98 1.6 4.8 0.00 0.00 0.00 81 1015.5
20260508040503 8 107 1.6 4.8 0.00 0.00 0.00 81 1015.6
20260508040003 8 107 1.6 4.8 0.00 0.00 0.00 81 1015.7
20260508035524 8 107 1.6 4.8 0.00 0.00 0.00 81 1015.6
20260508035003 8 105 1.6 4.8 0.00 0.00 0.00 81 1015.6
20260508034503 8 101 1.6 4.8 0.00 0.00 0.00 80 1015.7
20260508034003 8 101 1.6 6.4 0.00 0.00 0.00 81 1015.6
20260508033503 8 104 1.6 6.4 0.00 0.00 0.00 81 1015.6
20260508033003 8 100 1.6 6.4 0.00 0.00 0.00 81 1015.6
20260508032503 8 102 1.6 6.4 0.00 0.00 0.00 81 1015.5
20260508032004 8 102 3.2 6.4 0.00 0.00 0.00 80 1015.5
20260508031503 8 98 3.2 6.4 0.00 0.00 0.00 80 1015.5
20260508031003 8 99 3.2 4.8 0.00 0.00 0.00 80 1015.5
20260508030503 8 104 1.6 6.4 0.00 0.00 0.00 80 1015.4
20260508030003 8 105 3.2 6.4 0.00 0.00 0.00 80 1015.5
20260508025503 8 108 3.2 9.7 0.00 0.00 0.00 80 1015.2
20260508025003 8 109 3.2 9.7 0.00 0.00 0.00 80 1015.5
20260508024503 8 105 3.2 6.4 0.00 0.00 0.00 80 1015.4
20260508024003 8 104 3.2 6.4 0.00 0.00 0.00 79 1015.5
20260508023503 8 113 3.2 6.4 0.00 0.00 0.00 79 1015.6
20260508023003 8 114 1.6 6.4 0.00 0.00 0.00 79 1015.6
20260508022503 8 129 1.6 4.8 0.00 0.00 0.00 79 1015.6
20260508022003 8 125 1.6 9.7 0.00 0.00 0.00 79 1015.4
20260508021524 8 140 3.2 9.7 0.00 0.00 0.00 79 1015.3
20260508021003 8 164 3.2 6.4 0.00 0.00 0.00 79 1015.5
20260508020503 8 127 1.6 6.4 0.00 0.00 0.00 79 1015.2
20260508020024 8 111 1.6 6.4 0.00 0.00 0.00 79 1015.3
20260508015503 8 113 1.6 9.7 0.00 0.00 0.00 79 1015.4
20260508015003 8 118 1.6 9.7 0.00 0.00 0.00 79 1015.4
20260508014503 8 110 3.2 9.7 0.00 0.00 0.00 79 1015.2
20260508014003 8 103 3.2 6.4 0.00 0.00 0.00 78 1015.4
20260508013503 9 99 3.2 6.4 0.00 0.00 0.00 78 1015.4
20260508013003 9 101 3.2 9.7 0.00 0.00 0.00 78 1015.4
20260508012503 9 104 3.2 9.7 0.00 0.00 0.00 78 1015.2
20260508012003 9 98 1.6 9.7 0.00 0.00 0.00 78 1015.2
20260508011503 9 100 3.2 9.7 0.00 0.00 0.00 77 1015.3
20260508011024 9 104 3.2 9.7 0.00 0.00 0.00 78 1015.2
20260508010503 9 103 3.2 9.7 0.00 0.00 0.00 78 1015.3
20260508010003 8 103 3.2 9.7 0.00 0.00 0.00 79 1015.5
20260508005503 8 102 3.2 6.4 0.00 0.00 0.00 79 1015.5
20260508005024 9 102 1.6 4.8 0.00 0.00 0.00 78 1015.5
20260508004503 9 113 1.6 4.8 0.00 0.00 0.00 77 1015.5
20260508004003 8 120 1.6 3.2 0.00 0.00 0.00 78 1015.7
20260508003503 8 119 1.6 6.4 0.00 0.00 0.00 78 1015.7
20260508003003 8 137 1.6 6.4 0.00 0.00 0.00 78 1015.7
20260508002524 8 141 1.6 4.8 0.00 0.00 0.00 78 1015.7
20260508002024 8 113 1.6 4.8 0.00 0.00 0.00 79 1015.8
20260508001524 8 110 1.6 4.8 0.00 0.00 0.00 79 1015.8
20260508001003 8 115 1.6 4.8 0.00 0.00 0.00 79 1015.5
20260508000503 8 127 0.0 3.2 0.00 0.00 0.00 79 1015.9
20260508000004 8 139 1.6 6.4 0.00 0.00 0.00 78 1015.7
20260507235503 8 142 1.6 6.4 0.00 0.00 0.00 78 1015.7
20260507235003 8 162 1.6 6.4 0.00 0.00 0.00 78 1015.8
20260507234503 8 187 3.2 6.4 0.00 0.00 0.00 77 1015.7
20260507234024 8 189 3.2 6.4 0.00 0.00 0.00 77 1015.6
20260507233503 8 180 1.6 6.4 0.00 0.00 0.00 77 1015.6
20260507233003 8 158 1.6 4.8 0.00 0.00 0.00 77 1015.6
20260507232504 8 130 1.6 4.8 0.00 0.00 0.00 76 1015.5
20260507232024 8 129 1.6 6.4 0.00 0.00 0.00 76 1015.6
20260507231503 9 139 1.6 6.4 0.00 0.00 0.00 75 1015.6
20260507231003 9 136 1.6 4.8 0.00 0.00 0.00 75 1015.5
20260507230503 9 143 1.6 4.8 0.00 0.00 0.00 74 1015.6
20260507230004 9 129 1.6 6.4 0.00 0.00 0.00 74 1015.6
20260507225503 9 125 1.6 6.4 0.00 0.00 0.00 74 1015.5
20260507225004 9 140 1.6 4.8 0.00 0.00 0.00 74 1015.8
20260507224504 9 130 1.6 4.8 0.00 0.00 0.00 73 1015.5
20260507224003 9 114 1.6 3.2 0.00 0.00 0.00 73 1015.4
20260507223503 9 138 1.6 4.8 0.00 0.00 0.00 73 1015.5
20260507223003 10 132 1.6 4.8 0.00 0.00 0.00 72 1015.3
20260507222503 10 113 1.6 4.8 0.00 0.00 0.00 72 1015.4
20260507222003 10 121 1.6 4.8 0.00 0.00 0.00 71 1015.4
20260507221503 10 139 1.6 4.8 0.00 0.00 0.00 71 1015.4
20260507221003 10 151 1.6 9.7 0.00 0.00 0.00 71 1015.3
20260507220503 10 142 3.2 9.7 0.00 0.00 0.00 70 1015.3
20260507220003 10 140 1.6 6.4 0.00 0.00 0.00 70 1015.4
20260507215503 10 162 1.6 6.4 0.00 0.00 0.00 70 1015.3
20260507215024 10 160 3.2 6.4 0.00 0.00 0.00 70 1015.5
20260507214503 10 144 1.6 6.4 0.00 0.00 0.00 69 1015.5
20260507214003 10 139 1.6 4.8 0.00 0.00 0.00 70 1015.2
20260507213504 10 127 1.6 4.8 0.00 0.00 0.00 70 1015.4
20260507213024 10 136 1.6 4.8 0.00 0.00 0.00 70 1015.4
20260507212503 10 136 3.2 6.4 0.00 0.00 0.00 69 1015.4
20260507212003 10 140 3.2 9.7 0.00 0.00 0.00 69 1015.6
20260507211504 10 158 3.2 9.7 0.00 0.00 0.00 69 1015.4
20260507211003 10 154 3.2 9.7 0.00 0.00 0.00 69 1015.3
20260507210503 10 148 3.2 9.7 0.00 0.00 0.00 69 1015.2
20260507210003 10 153 1.6 4.8 0.00 0.00 0.00 70 1015.4
20260507205503 10 151 1.6 4.8 0.00 0.00 0.00 71 1015.1
20260507205003 10 157 1.6 4.8 0.00 0.00 0.00 72 1015.1
20260507204503 10 149 1.6 4.8 0.00 0.00 0.00 72 1015.1
20260507204003 10 133 1.6 3.2 0.00 0.00 0.00 73 1015.3
20260507203503 10 127 0.0 3.2 0.00 0.00 0.00 73 1015.2
20260507203004 10 108 0.0 1.6 0.00 0.00 0.00 73 1015.1
20260507202503 10 188 0.0 4.8 0.00 0.00 0.00 72 1015.0
20260507202003 10 210 1.6 4.8 0.00 0.00 0.00 72 1015.3
20260507201503 10 212 1.6 4.8 0.00 0.00 0.00 71 1015.1
20260507201003 10 206 1.6 3.2 0.00 0.00 0.00 70 1014.8
20260507200503 11 198 3.2 4.8 0.00 0.00 0.00 69 1014.9
20260507200003 11 182 3.2 6.4 0.00 0.00 0.00 68 1015.1
20260507195524 11 172 3.2 6.4 0.00 0.00 0.00 67 1014.8
20260507195004 11 191 1.6 9.7 0.00 0.00 0.00 66 1014.8
20260507194503 11 186 1.6 9.7 0.00 0.00 0.00 65 1014.7
20260507194024 11 167 1.6 4.8 0.00 0.00 0.00 65 1014.8
20260507193503 11 167 1.6 4.8 0.00 0.00 0.00 65 1014.9
20260507193003 11 174 1.6 4.8 0.00 0.00 0.00 65 1014.7
20260507192503 11 164 1.6 4.8 0.00 0.00 0.00 64 1014.6
20260507192024 11 141 1.6 4.8 0.00 0.00 0.00 64 1014.7
20260507191503 11 150 1.6 4.8 0.00 0.00 0.00 63 1014.8
20260507191003 11 152 1.6 3.2 0.00 0.00 0.00 62 1014.6
20260507190525 11 141 1.6 3.2 0.00 0.00 0.00 62 1014.5
20260507190004 12 153 1.6 9.7 0.00 0.00 0.00 62 1014.4
20260507185503 12 163 1.6 9.7 0.00 0.00 0.00 60 1014.5
20260507185024 12 181 3.2 9.7 0.00 0.00 0.00 59 1014.6
20260507184504 12 182 3.2 9.7 0.00 0.00 0.00 59 1014.6
20260507184024 12 178 3.2 9.7 0.00 0.00 0.00 59 1014.3
20260507183503 12 174 3.2 9.7 0.00 0.00 0.00 58 1014.3
20260507183003 12 177 3.2 11.3 0.00 0.00 0.00 58 1014.3
20260507182503 12 187 4.8 11.3 0.00 0.00 0.00 58 1014.3
20260507182004 12 196 4.8 9.7 0.00 0.00 0.00 57 1014.2
20260507181524 12 195 4.8 11.3 0.00 0.00 0.00 57 1014.4
20260507181003 12 199 4.8 11.3 0.00 0.00 0.00 57 1014.3
20260507180503 12 202 3.2 11.3 0.00 0.00 0.00 57 1014.3
20260507180004 12 205 4.8 11.3 0.00 0.00 0.00 56 1014.2
20260507175503 12 202 4.8 11.3 0.00 0.00 0.00 55 1014.2
20260507175003 12 188 3.2 11.3 0.00 0.00 0.00 55 1014.4
20260507174503 12 179 3.2 9.7 0.00 0.00 0.00 56 1014.3
20260507174003 12 176 3.2 12.9 0.00 0.00 0.00 57 1014.1
20260507173503 12 175 3.2 12.9 0.00 0.00 0.00 56 1014.2
20260507173024 12 164 3.2 11.3 0.00 0.00 0.00 57 1014.2
20260507172503 12 166 3.2 11.3 0.00 0.00 0.00 55 1014.2
20260507172003 13 168 3.2 11.3 0.00 0.00 0.00 55 1014.1
20260507171503 13 169 3.2 9.7 0.00 0.00 0.00 55 1014.3
20260507171003 13 167 3.2 9.7 0.00 0.00 0.00 56 1014.2
20260507170503 13 165 1.6 9.7 0.00 0.00 0.00 54 1014.3
20260507170024 13 159 1.6 6.4 0.00 0.00 0.00 56 1014.2
20260507165503 13 154 1.6 6.4 0.00 0.00 0.00 55 1014.3
20260507165003 13 162 1.6 6.4 0.00 0.00 0.00 56 1014.4
20260507164503 13 149 1.6 9.7 0.00 0.00 0.00 57 1014.3
20260507164024 13 146 3.2 9.7 0.00 0.00 0.00 56 1014.3
20260507163524 12 150 3.2 6.4 0.00 0.00 0.00 55 1014.4
20260507163004 12 171 3.2 9.7 0.00 0.00 0.00 56 1014.3
20260507162503 13 200 3.2 11.3 0.00 0.00 0.00 56 1014.4
20260507162003 13 214 4.8 11.3 0.00 0.00 0.00 54 1014.5
20260507161503 13 202 3.2 11.3 0.00 0.00 0.00 55 1014.3
20260507161025 13 185 3.2 9.7 0.00 0.00 0.00 54 1014.3
20260507160503 13 186 3.2 12.9 0.00 0.00 0.00 54 1014.5
20260507160003 13 174 3.2 12.9 0.00 0.00 0.00 53 1014.5
20260507155503 13 162 3.2 11.3 0.00 0.00 0.00 53 1014.5
20260507155003 13 170 3.2 12.9 0.00 0.00 0.00 53 1014.4
20260507154524 14 175 3.2 12.9 0.00 0.00 0.00 51 1014.4
20260507154003 14 186 3.2 12.9 0.00 0.00 0.00 52 1014.5
20260507153504 14 182 4.8 11.3 0.00 0.00 0.00 51 1014.2
20260507153024 14 173 4.8 12.9 0.00 0.00 0.00 51 1014.5
20260507152503 14 173 4.8 12.9 0.00 0.00 0.00 51 1014.4
20260507152003 14 182 4.8 14.5 0.00 0.00 0.00 55 1014.4
20260507151503 13 192 6.4 14.5 0.00 0.00 0.00 55 1014.5
20260507151003 13 178 4.8 12.9 0.00 0.00 0.00 54 1014.6
20260507150503 14 159 3.2 11.3 0.00 0.00 0.00 54 1014.5
20260507150004 13 187 4.8 14.5 0.00 0.00 0.00 56 1014.6
20260507145503 13 192 4.8 14.5 0.00 0.00 0.00 56 1014.4
20260507145003 13 182 4.8 16.1 0.00 0.00 0.00 56 1014.7
20260507144524 13 187 4.8 16.1 0.00 0.00 0.00 56 1014.6
20260507144003 13 199 4.8 12.9 0.00 0.00 0.00 56 1014.7
20260507143503 14 206 4.8 14.5 0.00 0.00 0.00 55 1014.8
20260507143003 13 206 4.8 14.5 0.00 0.00 0.00 57 1015.0
20260507142503 13 186 4.8 14.5 0.00 0.00 0.00 56 1015.2
20260507142003 13 181 4.8 17.7 0.00 0.00 0.00 57 1015.1
20260507141524 13 207 4.8 17.7 0.00 0.00 0.00 56 1015.3
20260507141024 13 212 6.4 16.1 0.00 0.00 0.00 56 1015.1
20260507140503 13 178 4.8 16.1 0.00 0.00 0.00 56 1015.3
20260507140003 13 173 4.8 14.5 0.00 0.00 0.00 57 1015.2
20260507135504 13 199 3.2 14.5 0.00 0.00 0.00 58 1015.3
20260507135003 13 187 3.2 9.7 0.00 0.00 0.00 56 1015.1
20260507134524 13 189 4.8 12.9 0.00 0.00 0.00 56 1015.2
20260507134004 12 187 4.8 12.9 0.00 0.00 0.00 58 1015.2
20260507133503 13 173 3.2 12.9 0.00 0.00 0.00 58 1015.3
20260507133024 12 181 3.2 11.3 0.00 0.00 0.00 58 1015.5
20260507132503 12 164 4.8 14.5 0.00 0.00 0.00 58 1015.4
20260507132003 12 172 4.8 14.5 0.00 0.00 0.00 57 1015.5
20260507131503 12 193 4.8 14.5 0.00 0.00 0.00 59 1015.4
20260507131003 12 186 4.8 14.5 0.00 0.00 0.00 59 1015.4
20260507130524 12 179 4.8 12.9 0.00 0.00 0.00 60 1015.2
20260507130003 12 180 4.8 11.3 0.00 0.00 0.00 61 1015.4
20260507125503 11 181 4.8 16.1 0.00 0.00 0.00 60 1015.3
20260507125003 11 169 4.8 16.1 0.00 0.00 0.00 60 1015.4
20260507124524 11 165 4.8 14.5 0.00 0.00 0.00 60 1015.4
20260507124003 11 155 4.8 14.5 0.00 0.00 0.00 61 1015.4
20260507123503 11 152 3.2 12.9 0.00 0.00 0.00 62 1015.6